[[{"header":{"parameterUnit":"m.s-1","parameterCategory":1,"la1":30.2991,"la2":30.254,"lo1":-89.0895,"lo2":-89.0444,"dy":0.0017,"dx":0.0017,"nx":28,"ny":28,"refTime":"2025-07-13T21:00:00:Z","depth":0,"parameterNumber":2,"parameterNumberName":"U-component_of_WINDS"},"data":[0,0,0,0,0,0,0,0,0,0,0,0,0,0,0,0,0,0,0,0,0,0,0,0,0,0,0,0,0,0,0,0,0,0,0,0,0,0,0,0,0,0,0,0,0,0,0,0,0,0,0,0,0,0,0,0,0,0,-0.0879,-0.0877,0,-0.0764,-0.0763,-0.0761,-0.0703,-0.0703,-0.0703,-0.0703,-0.0586,-0.0583,-0.058,0,0,0,0,0,0,0,0,0,0,0,0,0,-0.1049,-0.1046,-0.0879,-0.0877,-0.0876,-0.0764,-0.0762,-0.0761,-0.0703,-0.0703,-0.0703,-0.0703,-0.0587,-0.0583,-0.058,0,0,0,0,0,0,0,0,0,0,0,0,0,-0.0959,-0.1045,-0.0879,-0.0834,-0.0828,-0.0764,-0.0762,-0.0761,-0.0704,-0.0703,-0.0703,-0.0703,-0.0588,-0.0584,-0.0579,-0.0551,0,0,-0.0565,-0.0563,0,0,0,0,0,0,0,0,-0.0964,-0.0953,-0.0842,-0.0837,-0.0831,-0.0748,-0.0779,-0.069,-0.0704,-0.0751,-0.0703,-0.0703,-0.064,-0.0631,-0.061,-0.0546,-0.0541,-0.0565,-0.0562,-0.056,-0.0558,0,0,0,0,0,0,0,-0.097,-0.0957,-0.0833,-0.084,-0.0833,-0.0819,-0.0807,-0.0762,-0.0697,-0.0747,-0.0742,-0.073,-0.0637,-0.0614,-0.0606,-0.0539,-0.0565,-0.0561,-0.0558,-0.0556,-0.0448,-0.0447,0,0,0,0,0,0,-0.0984,-0.0963,-0.0837,-0.083,-0.0899,-0.0816,-0.0802,-0.0775,-0.0697,-0.0686,-0.073,-0.0727,-0.0622,-0.0612,-0.0602,-0.0565,-0.056,-0.0555,-0.0553,-0.0448,-0.0448,-0.0447,0,0,0,0,0,0,-0.0988,-0.0973,-0.0841,-0.0895,-0.0877,-0.0814,-0.0783,-0.0772,-0.075,-0.0684,-0.0673,-0.0718,-0.0622,-0.0609,-0.0565,-0.056,-0.0553,-0.0549,-0.0448,-0.0448,-0.0447,-0.049,0,0,0,0,0,0,-0.0993,-0.0975,-0.0963,-0.0895,-0.0875,-0.0806,-0.0783,-0.077,-0.0742,-0.0737,-0.0671,-0.066,-0.0621,-0.0572,-0.056,-0.0553,-0.0545,-0.0448,-0.0448,-0.0448,-0.0488,-0.0491,-0.0493,0,0,0,0,0,-0.0999,-0.098,-0.0963,-0.0948,-0.0859,-0.0806,-0.0794,-0.0749,-0.0742,-0.073,-0.0688,-0.0662,-0.0563,-0.0568,-0.0554,-0.0546,-0.0448,-0.0448,-0.0448,-0.0487,-0.049,-0.0493,0,0,0,0,0,0,-0.1049,-0.097,-0.0951,-0.0908,-0.0864,-0.0796,-0.0779,-0.0754,-0.0711,-0.0709,-0.0655,-0.0641,-0.0602,-0.0569,-0.0577,-0.0515,-0.0503,-0.05,-0.0538,-0.054,-0.0543,-0.0551,-0.0542,0,0,0,0,0,-0.1055,-0.1018,-0.0951,-0.0921,-0.0899,-0.0844,-0.0819,-0.0788,-0.074,-0.0721,-0.0676,-0.0631,-0.0589,-0.0563,-0.0521,-0.0484,-0.0469,-0.0471,-0.0474,-0.0476,-0.0474,-0.0452,-0.0453,-0.0447,-0.0447,-0.0447,0,0,-0.1067,-0.102,-0.0999,-0.0929,-0.0891,-0.0855,-0.0828,-0.079,-0.0762,-0.0715,-0.0671,-0.0637,-0.0582,-0.0542,-0.0522,-0.0514,-0.0473,-0.0476,-0.0478,-0.0475,-0.0452,-0.0453,-0.0453,-0.0447,-0.0447,-0.0447,0,0,-0.107,-0.1031,-0.1001,-0.0964,-0.0907,-0.087,-0.0863,-0.0798,-0.0774,-0.0729,-0.0693,-0.0659,-0.0589,-0.0552,-0.0524,-0.0515,-0.0489,-0.0503,-0.0515,-0.0494,-0.0495,-0.0495,-0.0492,-0.0491,-0.0501,-0.0501,-0.0501,0,-0.1093,-0.1036,-0.0989,-0.0953,-0.0924,-0.088,-0.0849,-0.0816,-0.0748,-0.0729,-0.0721,-0.0632,-0.0593,-0.0543,-0.0541,-0.052,-0.051,-0.0509,-0.0498,-0.0498,-0.0498,-0.0494,-0.0493,-0.0503,-0.0503,-0.0502,-0.0502,0,-0.1066,-0.1027,-0.101,-0.0946,-0.0914,-0.0882,-0.083,-0.0804,-0.0777,-0.0742,-0.0697,-0.0648,-0.0595,-0.0582,-0.0555,-0.0528,-0.0525,-0.0509,-0.0495,-0.0501,-0.0497,-0.0495,-0.0506,-0.0505,-0.0504,-0.0504,0,0,-0.1096,-0.1007,-0.1002,-0.0973,-0.0907,-0.0876,-0.0842,-0.0791,-0.077,-0.0725,-0.0695,-0.0637,-0.0622,-0.059,-0.0559,-0.0541,-0.0537,-0.0526,-0.0524,-0.053,-0.0505,-0.0518,-0.0517,-0.052,-0.052,-0.0519,-0.051,0,-0.109,-0.1026,-0.0983,-0.0936,-0.09,-0.0858,-0.0828,-0.0785,-0.0751,-0.0716,-0.0679,-0.0638,-0.0621,-0.0602,-0.0582,-0.0542,-0.0531,-0.0542,-0.0492,-0.049,-0.0506,-0.0515,-0.0527,-0.0521,-0.0508,-0.0507,-0.0507,0,-0.1074,-0.1031,-0.098,-0.0919,-0.0902,-0.0876,-0.0826,-0.0793,-0.0743,-0.072,-0.0685,-0.0654,-0.0616,-0.0607,-0.0554,-0.0563,-0.054,-0.0517,-0.0516,-0.0509,-0.0499,-0.0508,-0.0518,-0.0517,-0.0504,-0.0504,-0.0505,0,-0.1102,-0.103,-0.0991,-0.0967,-0.0895,-0.0877,-0.0847,-0.0797,-0.077,-0.0726,-0.0708,-0.0661,-0.0635,-0.06,-0.0557,-0.0554,-0.0509,-0.0496,-0.0489,-0.049,-0.0481,-0.0482,-0.0487,-0.0467,-0.0467,-0.0467,-0.0467,0,-0.1099,-0.1069,-0.1002,-0.0978,-0.0944,-0.0896,-0.0864,-0.0829,-0.0786,-0.0755,-0.0716,-0.0688,-0.0632,-0.0597,-0.0564,-0.0526,-0.0514,-0.0495,-0.0486,-0.0498,-0.05,-0.0482,-0.0481,-0.0467,-0.0467,-0.0467,-0.0467,0,-0.1123,-0.1077,-0.1031,-0.0967,-0.095,-0.0928,-0.0873,-0.0848,-0.0812,-0.0773,-0.0761,-0.0706,-0.0662,-0.0616,-0.0557,-0.0534,-0.0498,-0.0486,-0.0515,-0.051,-0.0506,-0.0507,-0.0499,-0.0495,-0.0478,-0.0479,-0.0479,0,-0.1124,-0.1101,-0.1034,-0.101,-0.098,-0.0942,-0.0914,-0.0866,-0.0838,-0.0781,-0.0763,-0.0717,-0.0678,-0.0611,-0.0565,-0.052,-0.0507,-0.0507,-0.05,-0.0513,-0.0507,-0.0508,-0.0506,-0.0509,-0.051,-0.051,-0.051,0,-0.1131,-0.111,-0.107,-0.1023,-0.099,-0.0951,-0.091,-0.0892,-0.0837,-0.0807,-0.0763,-0.0732,-0.0673,-0.0628,-0.0577,-0.0546,-0.0519,-0.0513,-0.0509,-0.0521,-0.0538,-0.0529,-0.0521,-0.0513,-0.0513,-0.0513,-0.0513,-0.0512,-0.1144,-0.1121,-0.1071,-0.1028,-0.0992,-0.0955,-0.0929,-0.089,-0.0852,-0.0799,-0.0774,-0.0729,-0.0681,-0.0611,-0.0581,-0.0546,-0.0537,-0.0531,-0.053,-0.0529,-0.0532,-0.0545,-0.0536,-0.0536,-0.0536,-0.0536,-0.0536,0,-0.1149,-0.1114,-0.1076,-0.102,-0.0986,-0.0964,-0.0918,-0.0891,-0.0853,-0.081,-0.0773,-0.0722,-0.0678,-0.063,-0.0583,-0.0565,-0.0551,-0.0554,-0.0555,-0.0548,-0.0542,-0.055,-0.0566,-0.0566,-0.0566,-0.0566,-0.0566,-0.0566,-0.1148,-0.1108,-0.1081,-0.1023,-0.0989,-0.0945,-0.092,-0.0886,-0.0852,-0.0797,-0.0761,-0.0729,-0.0684,-0.0635,-0.0594,-0.0581,-0.0566,-0.0572,-0.0556,-0.0551,-0.0548,-0.0546,-0.0553,-0.0569,-0.0569,-0.0564,-0.0564,-0.0564]},{"header":{"parameterUnit":"m.s-1","parameterCategory":1,"la1":30.2991,"la2":30.254,"lo1":-89.0895,"lo2":-89.0444,"dy":0.0017,"dx":0.0017,"nx":28,"ny":28,"refTime":"2025-07-13T21:00:00:Z","depth":0,"parameterNumber":3,"parameterNumberName":"V-component_of_WINDS"},"data":[0,0,0,0,0,0,0,0,0,0,0,0,0,0,0,0,0,0,0,0,0,0,0,0,0,0,0,0,0,0,0,0,0,0,0,0,0,0,0,0,0,0,0,0,0,0,0,0,0,0,0,0,0,0,0,0,0,0,4.3806,4.3806,0,4.3785,4.3784,4.3784,4.3785,4.3785,4.3786,4.3786,4.376,4.3759,4.3758,0,0,0,0,0,0,0,0,0,0,0,0,0,4.3845,4.3845,4.3806,4.3806,4.3806,4.3785,4.3784,4.3784,4.3785,4.3786,4.3786,4.3786,4.3761,4.3759,4.3758,0,0,0,0,0,0,0,0,0,0,0,0,0,4.3827,4.3845,4.3806,4.3804,4.3803,4.3785,4.3784,4.3784,4.3785,4.3786,4.3786,4.3786,4.3761,4.376,4.3758,4.374,0,0,4.3754,4.3753,0,0,0,0,0,0,0,0,4.3828,4.3825,4.3804,4.3804,4.3803,4.3788,4.3789,4.3769,4.3785,4.3792,4.3786,4.3787,4.3769,4.3767,4.3762,4.3738,4.3737,4.3754,4.3753,4.3752,4.3752,0,0,0,0,0,0,0,4.3829,4.3826,4.3798,4.3804,4.3803,4.3803,4.3801,4.3785,4.3778,4.3791,4.3791,4.3789,4.3769,4.3763,4.3761,4.3737,4.3754,4.3752,4.3751,4.3751,4.3698,4.3698,0,0,0,0,0,0,4.3831,4.3827,4.3798,4.3797,4.3817,4.3802,4.3799,4.3792,4.3778,4.3776,4.3789,4.3789,4.3765,4.3763,4.376,4.3738,4.3752,4.3751,4.375,4.3699,4.3698,4.3698,0,0,0,0,0,0,4.3832,4.3829,4.3799,4.3812,4.3808,4.3801,4.3793,4.3792,4.3786,4.3776,4.3774,4.3784,4.3766,4.3762,4.3745,4.3737,4.375,4.3749,4.3699,4.3699,4.3698,4.3694,0,0,0,0,0,0,4.3833,4.3829,4.3822,4.3812,4.3808,4.3785,4.3792,4.3791,4.3784,4.3785,4.3772,4.377,4.3766,4.3747,4.3744,4.3735,4.3747,4.37,4.3699,4.3698,4.3694,4.3693,4.3692,0,0,0,0,0,4.3835,4.3821,4.3822,4.3818,4.3799,4.3785,4.3782,4.3779,4.3783,4.3776,4.377,4.377,4.3739,4.3746,4.3741,4.3733,4.3701,4.3699,4.3698,4.3695,4.3693,4.3692,0,0,0,0,0,0,4.3829,4.3819,4.382,4.3803,4.3795,4.3785,4.3776,4.3777,4.3766,4.3766,4.3762,4.3759,4.3742,4.3735,4.3743,4.3715,4.372,4.3718,4.3719,4.3717,4.3716,4.3718,4.3746,0,0,0,0,0,4.3826,4.3816,4.3808,4.3793,4.3789,4.3783,4.3777,4.3775,4.3766,4.3762,4.3754,4.3744,4.3733,4.3725,4.3713,4.3694,4.3691,4.3686,4.3684,4.3683,4.3681,4.3672,4.3669,4.3694,4.3694,4.3694,0,0,4.3819,4.3813,4.3806,4.3792,4.3785,4.3775,4.378,4.3768,4.376,4.376,4.3744,4.3738,4.3727,4.3709,4.3701,4.3703,4.3674,4.3682,4.3681,4.368,4.367,4.3668,4.3666,4.3693,4.3693,4.3693,0,0,4.3801,4.3795,4.3783,4.3777,4.3767,4.3764,4.3761,4.3751,4.3748,4.3732,4.3732,4.3722,4.3701,4.3694,4.3687,4.3668,4.3668,4.3664,4.3656,4.3647,4.3645,4.3643,4.3637,4.3634,4.3662,4.3662,4.3662,0,4.3793,4.3778,4.3776,4.3765,4.3758,4.376,4.3747,4.3741,4.3727,4.3723,4.3726,4.3701,4.3694,4.3675,4.367,4.3665,4.3661,4.3665,4.3645,4.3644,4.3642,4.3636,4.3633,4.3662,4.3662,4.3662,4.3662,0,4.3769,4.3758,4.3749,4.3739,4.3731,4.3719,4.3715,4.3708,4.3707,4.3703,4.3688,4.3679,4.3666,4.3661,4.366,4.3642,4.3644,4.3647,4.3652,4.3639,4.3633,4.3631,4.3661,4.3662,4.3662,4.3662,0,0,4.3745,4.3735,4.3732,4.3728,4.3718,4.371,4.3698,4.3687,4.3681,4.3672,4.3662,4.3645,4.3648,4.364,4.3638,4.363,4.3616,4.3633,4.3632,4.363,4.3597,4.3595,4.3593,4.3616,4.3616,4.3615,4.3598,0,4.3727,4.3707,4.3706,4.3688,4.3678,4.368,4.3669,4.3662,4.3659,4.3649,4.3645,4.3633,4.3637,4.3633,4.3625,4.3619,4.3609,4.362,4.3606,4.3606,4.3609,4.3589,4.3587,4.3572,4.3596,4.3595,4.3595,0,4.3702,4.3694,4.3676,4.3669,4.3665,4.3656,4.3646,4.3637,4.3629,4.3627,4.362,4.3619,4.3607,4.3613,4.3596,4.3604,4.3598,4.3594,4.3594,4.3592,4.3599,4.3587,4.3566,4.3564,4.3591,4.3591,4.3592,0,4.3687,4.3672,4.3659,4.3655,4.3647,4.3641,4.3637,4.3629,4.3623,4.3615,4.3611,4.36,4.3594,4.3586,4.3582,4.3587,4.3565,4.3571,4.3563,4.3563,4.3558,4.3558,4.3536,4.3554,4.3554,4.3554,4.3554,0,4.3666,4.3655,4.3653,4.3645,4.3632,4.3631,4.3618,4.3615,4.3608,4.3599,4.36,4.3591,4.3587,4.3578,4.3575,4.3561,4.3558,4.3556,4.3555,4.3556,4.3556,4.3552,4.3553,4.3553,4.3554,4.3554,4.3554,0,4.3647,4.3646,4.3632,4.3626,4.3624,4.3615,4.361,4.3602,4.3599,4.3588,4.3585,4.358,4.3569,4.3565,4.3551,4.3549,4.3534,4.3534,4.3537,4.3537,4.3529,4.353,4.3503,4.3499,4.352,4.352,4.3519,0,4.3634,4.3626,4.362,4.3614,4.3611,4.3602,4.3596,4.3595,4.3589,4.358,4.3573,4.3563,4.3555,4.3538,4.3532,4.3522,4.3522,4.3513,4.352,4.3522,4.3522,4.3523,4.3522,4.3512,4.3511,4.3511,4.3511,0,4.3611,4.3611,4.3604,4.3596,4.359,4.3584,4.3577,4.3573,4.357,4.3564,4.3554,4.3547,4.3535,4.3524,4.3514,4.3509,4.351,4.3509,4.3507,4.3507,4.351,4.3509,4.3534,4.351,4.351,4.351,4.351,4.351,4.3595,4.3588,4.3583,4.3575,4.3571,4.3565,4.3558,4.3555,4.3547,4.3538,4.3537,4.3526,4.3519,4.3506,4.3501,4.3492,4.3495,4.3491,4.349,4.3489,4.3489,4.3511,4.349,4.349,4.349,4.349,4.349,0,4.3572,4.357,4.3562,4.3555,4.3548,4.3551,4.3545,4.3539,4.353,4.3524,4.3517,4.3505,4.3496,4.3491,4.3481,4.3475,4.3475,4.3473,4.3473,4.3472,4.3487,4.349,4.3473,4.3473,4.3473,4.3473,4.3473,4.3473,4.356,4.3548,4.3548,4.3535,4.3532,4.3523,4.3519,4.3514,4.3509,4.3497,4.349,4.3487,4.3482,4.3472,4.3464,4.3462,4.3459,4.3456,4.3455,4.3469,4.3471,4.3473,4.3476,4.3455,4.3455,4.3441,4.3441,4.3441]}]]